SCP
0 0 0 0 0 0 0 0 0 0 0 0 0 0 0 0 0 0 0 0 0 0 0 0 0 0 0 0 0 0 0 0 0 0 0 0 0 0
1 1 0 0 0 0 0 0 0 0 0 0 0 0 0 0 0 0 0 0 0 0 0 0 0 0 0 0 0 0 0 0 0 0 0 0 0 0
1 1 1 0 0 0 0 0 0 0 0 0 0 0 0 0 0 0 0 0 0 0 0 0 0 0 0 -0 -0 0 0 0 0 0 0 0 0 0
1 1 1 1 1 0 0 0 0 0 0 0 0 0 0 0 0 0 0 0 0 0 0 0 0 0 0 0 0 0 0 0 0 0 0 0 0 0
1 1 1 1 1 1 1 1 0 0 0 0 0 0 0 0 0 0 0 0 0 0 0 0 0 0 0 0 0 0 0 0 0 0 0 0 0 0
1 1 1 1 1 1 1 1 1 1 1 0 0 0 0 0 0 0 0 0 0 0 0 0 0 0 0 0 0 0 0 0 0 0 0 0 0 0
1 1 1 1 0 0 1 1 1 1 1 0 0 0 0 0 0 0 0 0 0 0 0 0 0 0 0 0 0 0 0 0 0 0 0 0 0 0
1 1 1 0 0 0 0 0 0 0 1 0 0 0 0 0 0 0 0 0 0 0 0 0 0 0 0 0 0 0 0 0 0 0 0 0 0 0
1 1 1 1 0 0 0 0 0 0 0 0 0 0 0 0 1 0 0 0 0 0 0 0 0 0 0 0 0 0 0 0 0 0 0 0 0 0
1 1 1 1 1 0 0 0 0 0 0 0 0 0 0 0 0 0 0 0 0 0 0 0 0 0 0 0 0 0 0 0 0 0 0 0 0 0
0 0 0 0 0 0 0 1 1 0 0 0 0 0 0 0 0 0 0 0 0 0 0 0 0 0 0 0 0 0 0 0 0 0 0 0 0 0
0 0 0 0 0 0 0 1 1 1 0 0 0 0 0 0 0 0 0 0 0 0 0 0 0 0 0 0 0 0 0 0 0 0 0 0 0 0
0 0 0 0 0 0 0 0 0 0 0 0 0 0 0 0 0 0 0 0 0 0 0 0 0 0 0 0 0 0 0 0 0 0 0 0 0 0
0 0 0 0 0 0 0 0 0 0 0 0 0 0 0 0 0 0 0 0 0 0 0 0 0 0 0 0 0 0 0 0 0 0 0 0 0 0
0 0 0 0 0 0 0 0 0 0 0 0 0 0 0 0 0 0 0 0 0 0 0 0 0 0 0 0 0 0 0 0 0 0 0 0 0 0
0 0 0 0 0 0 0 0 0 0 0 0 0 0 0 0 0 0 0 0 0 0 0 0 0 0 0 0 0 0 0 0 0 0 0 0 0 0
0 0 0 0 0 0 0 0 0 0 0 0 0 0 0 0 0 0 0 0 0 0 0 0 0 0 0 0 0 0 0 0 0 0 0 0 0 0
0 0 0 0 0 0 0 0 0 0 0 0 0 0 0 0 0 0 0 0 0 0 0 0 0 0 0 0 0 0 0 0 0 0 0 0 0 0
0 0 0 0 0 0 0 0 0 0 0 0 0 0 0 0 0 0 0 0 0 0 0 0 0 0 0 0 0 0 0 0 0 0 0 0 0 0
0 0 0 0 0 0 0 0 0 0 0 0 0 0 0 0 0 0 0 0 0 0 0 0 0 0 0 0 0 0 0 0 0 0 0 0 0 0
0 0 0 0 0 0 0 0 0 0 0 0 0 0 0 0 0 0 0 0 0 0 0 0 0 0 0 0 0 0 0 0 0 0 0 0 0 0
0 0 0 0 0 0 0 0 0 0 0 0 0 0 0 0 0 0 0 0 0 0 0 0 0 0 0 0 0 0 0 0 0 0 0 0 0 0
0 0 0 0 0 0 0 0 0 0 0 0 0 0 0 0 0 0 0 0 0 0 0 0 0 0 0 0 0 0 0 0 0 0 0 0 0 0
Wind_Speed
4 4 3 2 2 3 3 3 3 3 2 3 2 2 2 1 2 4 3 5 5 4 4 4 4 4 4 4 4 5 4 5 5 7 7 8 8 7
3 3 4 3 3 3 3 3 3 4 3 1 2 1 1 2 2 3 3 6 6 6 5 5 4 5 5 5 5 5 6 6 6 6 8 9 9 8
4 4 5 4 3 3 3 3 3 3 3 2 2 1 2 3 2 3 4 4 4 7 5 5 5 4 4 5 5 6 6 6 7 7 7 8 9 9
5 4 5 4 4 4 3 4 3 3 4 4 3 2 3 3 3 4 4 3 3 6 7 6 5 5 4 5 5 5 6 6 7 7 8 8 8 8
4 5 5 5 5 4 5 4 4 4 4 4 4 2 2 2 3 4 4 3 4 5 8 8 7 6 5 5 6 6 6 6 6 6 7 8 8 8
4 5 5 5 5 5 5 5 4 4 4 5 4 3 3 2 3 3 3 3 3 3 2 3 6 8 7 7 7 7 7 7 7 7 7 7 8 8
4 4 5 4 3 3 4 4 4 4 4 4 4 4 3 2 3 3 3 3 3 3 3 3 4 5 6 8 8 8 7 7 7 7 7 8 8 8
4 4 5 5 4 4 3 3 4 5 5 5 4 4 3 4 3 4 4 4 3 2 4 4 4 4 4 4 5 8 8 8 8 8 8 8 8 8
4 4 4 3 5 5 5 6 5 5 6 6 6 5 4 4 4 5 3 4 4 3 4 5 4 4 3 2 7 8 8 8 8 8 8 8 8 8
5 5 5 4 4 4 5 5 5 6 7 7 6 5 5 4 4 5 5 5 5 4 4 5 4 4 3 3 8 8 8 8 8 8 8 8 8 9
6 6 5 6 3 4 6 6 6 5 5 5 5 4 3 4 5 5 5 5 5 3 3 5 5 5 4 4 5 10 9 9 8 8 8 8 8 8
5 5 6 6 4 5 7 7 7 6 5 5 6 7 8 7 8 7 6 6 5 4 2 4 5 4 5 4 3 5 6 8 10 10 9 9 8 7
4 4 4 7 7 7 7 7 6 5 5 6 6 6 6 6 6 6 6 6 5 5 2 3 5 5 5 5 4 4 4 4 5 7 9 10 10 9
5 4 2 6 7 8 7 6 5 6 6 6 6 5 5 5 4 4 5 6 5 6 5 5 5 5 6 6 5 3 4 4 4 4 4 7 9 11
4 2 2 5 7 7 9 8 8 7 6 7 6 6 5 4 4 4 5 6 7 7 6 6 7 6 6 7 6 5 4 4 4 4 4 4 5 6
5 4 6 7 7 5 6 8 7 6 6 6 6 5 5 4 5 5 4 4 5 5 5 6 6 7 7 7 7 6 5 4 4 4 4 5 5 6
2 3 4 4 5 5 5 5 5 6 7 7 6 5 5 5 5 5 5 5 6 5 5 5 6 6 7 7 7 7 6 5 5 4 4 5 5 5
3 4 4 4 4 4 4 4 4 4 5 5 5 5 5 6 5 5 5 5 6 6 5 4 4 4 5 5 6 7 6 5 5 4 5 6 6 5
5 5 4 4 4 4 4 4 4 4 4 5 5 5 5 5 5 5 5 6 6 6 5 5 5 5 6 7 4 5 6 5 4 5 5 5 6 5
5 4 4 4 4 4 4 4 4 4 4 5 5 5 5 5 5 5 5 5 6 5 5 5 5 5 6 6 5 4 6 6 5 5 5 5 4 4
4 4 4 4 4 4 4 4 4 3 4 4 5 5 5 6 5 5 5 5 6 5 5 5 3 4 4 4 5 5 3 3 3 4 5 5 6 6
3 3 3 3 3 4 3 4 3 3 4 4 4 5 5 5 6 6 5 5 5 5 5 4 3 4 5 6 6 5 5 3 2 4 4 5 5 6
2 2 3 3 3 3 3 3 3 3 3 3 4 4 4 4 4 5 5 5 5 5 5 5 4 4 5 5 5 5 5 5 4 3 3 4 6 6
Wind_Direction
221 215 231 223 230 244 245 252 263 263 231 189 203 190 221 195 169 220 217 166 197 217 226 228 229 229 221 211 204 209 208 202 204 206 202 201 200 203
226 226 234 235 229 232 237 242 253 263 267 233 224 198 267 247 182 243 230 168 194 204 215 221 224 228 225 222 218 215 212 210 210 213 211 208 205 206
225 223 230 246 247 243 235 235 241 248 253 255 249 167 219 262 232 247 234 229 190 185 199 211 217 222 223 221 216 219 216 218 219 218 216 213 212 212
230 229 230 225 226 245 242 236 236 245 247 249 248 222 217 235 237 250 248 239 237 166 186 204 214 218 220 218 218 219 219 220 220 219 218 216 214 214
234 230 231 229 228 228 235 238 235 230 238 242 242 235 233 230 236 239 244 259 253 181 186 197 205 211 216 221 222 219 218 219 222 223 222 219 215 216
231 230 233 232 233 230 229 233 242 245 235 241 240 231 227 225 245 245 236 231 259 251 215 202 195 203 210 215 216 215 214 216 221 223 223 218 215 217
229 226 227 230 259 259 258 243 238 244 242 240 241 241 235 236 248 254 259 249 237 253 246 227 207 212 202 207 213 214 214 215 218 221 221 220 220 220
231 227 216 206 201 212 247 271 272 251 252 252 249 252 256 253 263 266 266 262 256 235 263 260 249 243 224 213 184 193 207 214 217 219 221 222 223 223
240 238 237 214 211 217 207 212 229 244 253 263 264 265 261 261 264 258 266 279 283 281 258 259 247 250 241 185 162 183 201 211 217 218 220 223 225 227
238 239 238 241 230 233 234 233 237 235 231 233 251 265 273 277 257 261 262 247 247 252 256 266 261 253 251 210 169 185 201 210 217 221 223 224 226 228
239 239 235 233 213 228 238 239 239 239 223 224 244 261 295 291 282 262 252 253 253 238 225 259 271 270 257 236 185 185 201 210 216 219 220 222 228 231
235 231 224 227 209 211 233 240 242 243 241 221 223 230 237 236 230 248 261 261 265 262 226 252 264 266 261 245 228 202 207 208 212 216 216 217 220 236
242 237 217 188 204 212 232 242 248 259 249 244 241 236 231 233 225 226 250 265 266 266 259 249 268 264 265 264 247 234 232 225 216 215 212 212 213 228
250 251 228 185 201 214 226 236 243 249 244 243 243 243 240 236 233 232 237 251 262 267 282 277 270 269 270 269 264 247 237 234 238 243 236 205 214 221
262 290 273 208 203 210 215 222 226 232 235 240 244 247 248 244 238 227 227 231 241 246 246 249 258 264 264 269 274 269 263 250 236 242 245 240 235 227
237 232 217 222 228 236 213 211 227 241 246 246 249 248 245 236 233 234 234 232 239 237 229 236 246 258 262 266 269 268 265 260 250 246 252 255 250 245
242 241 237 220 217 219 225 226 225 223 232 241 246 247 244 239 236 234 240 244 248 250 239 220 226 239 256 268 269 267 268 265 256 250 252 257 255 252
240 240 244 243 238 232 231 229 227 235 240 241 244 244 245 244 241 235 234 244 250 253 253 247 236 238 246 241 249 267 269 270 268 256 254 259 261 258
226 240 244 248 252 252 249 245 239 239 245 245 245 246 248 248 245 244 243 247 252 255 257 253 246 248 259 263 244 233 266 273 273 265 260 263 265 267
231 248 254 255 257 257 257 256 249 240 235 240 243 247 249 248 248 251 251 254 258 260 258 255 253 255 262 274 287 275 239 253 258 264 267 269 274 270
231 237 250 260 264 263 261 260 257 251 249 246 247 251 250 249 249 251 252 246 253 261 262 262 263 256 267 269 272 273 270 221 246 257 267 267 267 262
255 255 260 268 271 271 269 267 262 256 255 253 259 259 254 252 252 251 254 254 251 254 264 273 269 256 256 257 264 271 278 278 222 220 248 265 271 272
267 269 270 267 265 269 272 268 267 262 261 265 268 268 266 261 258 256 256 257 258 259 261 262 266 266 266 265 268 272 277 278 276 267 262 234 220 232